Weather in Kelowna

Canada     49°53′13″N   119°29′47″W
temp.,
°C
wind,
m/s
gust,
m/s
humid.,
%
clouds,
%
prec.,
mm/h
press.,
hPa
HPBL,
m
16 may, sun
sun1623:00+12nw115529 0.0 101216
02:00+11w1163100 0.0 101213
05:00+11w115999 0.0 101213
08:00+15se11475 0.0 1012322
11:00+22sse12335 0.0 1009985
14:00+26s25245 0.0 10052372
17:00+26wsw562574 0.0 10023007
20:00+18w23484 0.0 100493
17 may, mon
mon1723:00+12w11594 0.0 100627
02:00+11w11718 0.0 100626
05:00+10wnw1175100 0.0 100625
08:00+14s0158100 0.0 1005356
11:00+20ssw3734100 0.0 10032272
14:00+17w51040100 0.0 10041978
17:00+17w5634100 0.0 10041689
20:00+12nw2251100 0.0 100534
18 may, tue
tue1823:00+8nw2261100 0.0 100534
02:00+6wsw117179 0.0 100618
05:00+5sw127819 0.0 100835
08:00+7wsw5104465 0.1 10111305
11:00+10sw61023100 0.1 10102461
14:00+12wsw71017100 0.0 10104288
17:00+11wsw79221 0.0 10112762
20:00+7wsw36403 0.0 1014499
19 may, wed
wed1923:00+1wnw216213 0.0 101730
02:000w117014 0.0 101820
05:00−1wnw117612 0.0 101915
08:00+5e115215 0.0 1018633
11:00+11ne113513 0.2 10151816
14:00+14nw232119 0.2 10113000
17:00+13nw322548 0.3 10092613
20:00+8ene124919 0.0 101156
20 may, thu
thu2023:00+4wnw116780 0.1 101321
02:00+3wnw117783 0.0 101515
05:00+2nw118293 0.1 101615
08:00+7n115888 0.0 1015680
11:00+11nw234999 0.3 10121595
14:00+12nnw3442100 0.7 10112000
17:00+12ne243981 0.8 10111686
20:00+9nne115967 0.1 101224